Wind_Speed
67 70 72 75 78 81 84 87 89 92 95 98 101 105 108 111 115 119 122 126 130 133 137 141 145 148 151 154 156 157 158 159 160 160 160 161 161 161 161 161 161 161 161 161 161 160 160 160 160 159 158 157 156 155 155 154 153 152 151 150 149 147 146 144 143 142 141 140 139 138 137 135 134 132 131 129 127 126 124 122 120 118 116 114 111 108
65 68 71 74 77 79 82 85 88 91 93 96 99 102 106 109 112 116 119 123 127 130 134 137 141 145 149 152 154 156 157 158 159 159 160 160 160 160 161 161 161 161 161 160 160 160 160 160 159 159 158 157 156 155 154 153 152 152 151 150 149 147 146 144 143 142 141 140 139 137 136 136 134 133 131 129 128 126 124 122 120 118 116 114 112 109
63 66 69 72 75 78 81 83 86 89 92 94 97 100 103 107 110 113 117 120 124 127 131 134 138 142 145 149 152 154 156 157 158 159 159 159 160 160 160 160 160 160 160 160 160 160 160 160 159 159 158 157 156 155 154 153 152 151 150 150 149 147 145 143 142 142 141 140 139 137 136 136 135 133 132 130 128 126 124 123 121 119 117 115 112 110
62 64 67 70 73 76 79 82 85 87 90 93 95 98 101 104 107 111 114 117 121 124 127 131 135 138 142 146 149 152 154 156 157 158 158 159 159 159 160 160 160 160 160 160 160 160 160 160 159 159 158 157 156 155 154 153 152 151 150 149 148 146 144 143 142 142 141 140 139 138 137 136 135 134 132 131 129 127 125 123 121 119 118 115 113 112
60 63 66 69 71 74 77 80 83 86 88 91 94 96 99 102 105 108 111 114 118 121 124 128 131 135 139 142 146 149 152 154 156 157 158 158 159 159 159 159 159 160 160 160 160 160 160 159 159 159 158 157 156 155 154 153 151 150 150 149 147 145 143 142 142 141 141 140 139 138 137 136 135 134 133 132 130 128 125 123 121 120 118 116 115 113
59 61 64 67 70 73 76 78 81 84 87 90 92 95 97 100 103 106 109 112 115 118 121 125 128 132 135 139 143 146 149 152 154 156 157 157 158 158 159 159 159 159 159 159 159 159 159 159 159 159 158 157 156 155 154 153 151 150 149 148 146 145 143 142 141 141 140 139 138 137 137 136 136 135 133 132 131 129 126 124 122 120 119 117 115 114
57 60 63 65 68 71 74 77 80 83 85 88 90 93 95 98 101 103 106 109 112 115 118 122 125 128 132 136 139 143 146 150 152 154 155 157 157 158 158 158 158 158 159 159 159 159 159 159 159 158 158 157 156 155 153 152 151 150 149 147 146 144 142 141 140 140 140 139 138 137 137 136 136 135 134 133 131 129 127 125 123 121 119 118 116 115
56 59 61 64 66 69 72 75 78 81 84 86 89 91 94 96 99 101 104 107 110 113 116 119 122 125 129 132 136 140 143 147 150 152 154 155 156 157 157 157 158 158 158 158 158 158 158 158 158 158 157 156 155 154 153 152 151 150 148 147 145 143 141 140 140 140 139 139 138 137 136 136 135 134 134 133 131 129 127 125 124 122 120 119 117 116
55 58 60 62 65 67 70 73 76 79 82 84 87 89 92 94 97 99 102 104 107 110 113 116 119 122 126 129 133 137 140 144 147 150 152 154 155 156 156 157 157 157 157 157 157 158 158 158 157 157 156 156 155 153 152 151 150 149 148 147 145 143 141 139 139 139 139 138 137 137 136 135 135 134 133 133 131 129 128 126 124 123 121 119 118 117
54 56 58 61 63 66 68 71 74 77 80 82 85 88 90 92 95 97 100 102 105 107 110 113 116 119 123 126 129 133 137 141 144 147 150 152 154 155 155 156 156 156 156 157 157 157 157 157 157 156 156 155 154 153 152 151 150 149 148 146 145 142 140 139 139 139 139 138 137 136 136 135 135 134 134 133 131 130 128 127 125 124 122 120 119 118
52 55 57 59 61 64 66 69 72 75 78 80 83 86 88 91 93 95 98 100 103 105 108 111 113 117 120 123 126 130 134 138 141 145 148 150 152 153 154 155 155 156 156 156 156 156 156 156 156 156 155 154 154 153 153 152 151 149 148 146 144 141 139 138 138 139 138 137 137 136 135 135 135 134 134 132 131 130 128 127 126 124 123 121 120 118
51 53 55 58 60 62 65 67 70 73 76 79 81 84 87 89 91 93 96 98 100 103 105 108 111 114 117 120 123 127 130 134 138 142 145 148 150 152 153 154 154 155 155 155 155 155 155 155 155 155 154 154 154 153 153 152 151 149 148 146 143 141 139 138 138 139 138 137 136 136 135 135 135 134 134 132 131 130 128 127 126 124 123 122 120 119
49 52 54 56 58 61 63 65 68 71 74 77 80 82 85 87 89 92 94 96 98 100 103 105 108 111 114 117 120 124 127 131 135 138 142 145 148 150 152 153 154 154 154 155 155 155 155 155 154 154 154 154 153 153 153 152 151 149 148 146 143 141 139 139 139 139 138 137 136 135 135 135 135 134 134 132 131 130 128 127 126 125 123 122 121 119
48 50 52 55 57 59 61 64 66 69 72 75 77 80 82 85 87 90 92 94 96 98 100 103 106 108 111 114 117 121 124 128 131 135 139 142 145 148 150 152 153 153 154 154 154 154 154 154 154 154 153 153 153 153 153 152 151 149 147 145 143 141 140 139 139 138 138 137 136 135 135 135 134 134 134 133 131 130 129 128 126 125 124 122 121 119
46 48 51 53 55 57 60 62 64 67 69 72 75 77 80 83 85 88 90 92 94 96 98 101 103 106 108 111 114 118 121 125 128 132 136 139 143 145 148 150 151 152 153 153 153 154 154 154 153 153 153 153 153 153 152 152 151 149 147 145 143 142 140 139 139 138 138 137 136 135 135 135 134 134 134 133 132 131 129 128 127 126 124 123 121 120
44 46 48 51 53 56 58 60 62 65 67 70 72 75 78 81 83 86 88 90 92 94 96 99 101 103 106 109 111 115 118 122 125 129 133 136 140 143 146 148 149 151 151 152 153 153 153 153 153 153 152 152 152 152 152 151 150 149 147 145 143 141 140 139 138 138 137 136 136 135 135 134 134 134 134 133 132 131 130 129 127 126 125 123 122 120
42 44 46 49 51 54 56 58 61 63 65 68 70 73 76 78 81 83 85 87 89 92 94 96 98 101 103 106 109 112 115 118 122 126 129 133 137 140 143 146 148 149 150 151 152 152 152 152 152 152 152 152 152 152 152 151 150 148 147 145 143 141 140 139 138 138 138 136 136 135 135 134 134 134 134 133 132 131 130 129 128 127 125 124 122 120
39 42 44 46 49 52 54 56 59 61 63 65 68 70 73 76 78 81 83 85 87 89 92 94 96 98 101 103 106 109 112 116 119 122 126 130 134 137 140 143 146 148 149 150 151 152 152 152 151 151 151 151 151 151 151 150 149 148 146 145 143 141 140 139 139 138 137 136 135 135 134 134 134 134 133 133 132 132 131 130 128 127 126 124 123 121
37 39 41 44 47 49 52 54 57 59 61 63 66 68 71 73 76 78 80 82 85 87 89 91 93 95 98 101 103 106 109 113 116 119 123 127 130 134 137 141 144 146 148 149 150 150 151 151 150 150 150 150 150 150 150 149 148 147 146 144 143 141 140 139 139 138 137 136 135 134 134 133 133 133 133 133 132 132 131 130 129 128 126 124 123 121
35 37 39 42 44 47 50 52 54 57 59 61 63 66 68 71 73 75 78 80 82 84 86 88 91 93 95 98 101 104 107 110 113 116 120 124 127 131 135 138 141 144 146 148 149 149 149 149 149 149 149 149 149 149 149 148 147 146 145 144 143 141 140 140 139 138 137 136 135 134 133 133 133 133 133 133 132 132 131 130 129 128 126 125 123 122
33 35 37 40 42 45 47 50 52 54 57 59 61 63 65 68 70 73 75 77 79 81 84 86 88 90 93 96 98 101 104 107 110 113 117 120 124 128 132 136 139 142 144 146 147 147 148 148 148 148 148 148 148 148 148 147 147 146 145 144 143 142 141 140 139 138 137 135 134 133 132 132 132 132 132 132 132 132 131 130 129 128 127 125 124 122
32 33 36 38 41 43 45 48 50 52 55 57 59 61 63 65 68 70 72 74 77 79 81 84 86 88 90 93 96 99 102 104 107 111 114 118 121 125 129 133 136 139 142 144 145 146 146 147 147 147 147 147 147 147 146 146 146 145 145 144 143 142 141 140 139 137 136 135 134 133 132 132 132 132 132 132 132 131 131 130 129 128 127 126 124 122
30 32 34 36 39 41 44 46 48 51 53 55 57 59 61 63 65 67 69 72 74 76 79 81 83 86 88 91 94 96 99 102 105 108 111 115 119 123 126 130 133 137 139 142 143 144 145 146 146 146 146 146 146 146 145 145 145 145 144 144 143 142 141 140 139 137 136 135 133 132 132 131 131 131 131 131 131 131 131 130 129 128 127 126 124 123
28 30 32 34 37 39 42 45 47 49 51 53 55 57 59 60 62 65 67 69 71 74 76 78 81 83 86 89 92 94 97 100 102 105 109 112 116 120 123 127 131 134 137 139 141 142 144 145 145 146 145 145 145 145 145 145 145 144 144 144 143 142 141 140 138 137 136 134 133 132 131 131 130 131 131 131 131 131 130 130 129 128 127 126 125 123
26 27 30 32 34 37 40 43 45 47 50 51 53 55 57 59 60 62 65 67 69 72 74 76 79 82 84 87 90 92 95 97 100 103 106 110 113 117 120 124 128 131 134 136 138 140 142 143 144 145 145 145 144 144 144 144 144 144 144 144 144 143 141 140 138 137 135 134 133 131 131 130 130 130 130 130 130 131 130 130 129 129 128 127 125 124
24 25 27 29 32 35 38 40 43 45 48 50 51 53 55 57 59 60 63 65 67 70 72 75 77 80 82 85 87 90 93 95 98 101 104 107 110 114 118 121 125 128 131 134 136 139 141 142 143 144 144 144 144 144 144 144 144 144 144 144 144 143 141 140 138 137 135 134 132 131 130 130 130 130 130 130 130 130 130 130 129 129 128 127 126 124
21 23 25 27 30 32 35 38 40 43 45 47 49 51 53 55 56 58 60 62 65 67 70 72 75 77 80 83 85 88 91 93 96 99 102 105 108 111 115 118 122 125 129 132 135 137 140 141 142 143 143 143 143 143 143 143 144 144 144 144 144 143 141 140 138 137 135 134 132 131 130 130 130 129 129 130 130 130 130 130 130 129 128 127 126 124
20 21 23 25 28 30 33 36 38 41 43 45 47 49 51 53 54 56 58 60 62 65 67 70 73 75 78 81 84 86 89 91 94 97 99 102 105 109 112 116 119 123 127 130 133 136 138 140 142 142 143 143 143 143 143 143 143 144 144 144 144 143 141 140 139 137 135 134 133 131 130 130 129 129 129 129 129 130 130 130 129 129 128 127 126 124
18 20 22 24 26 28 31 33 36 38 41 43 45 47 49 50 52 54 55 58 60 63 66 68 71 74 77 79 82 84 87 89 92 95 97 100 103 106 110 114 118 121 125 129 132 135 138 140 141 142 142 143 143 143 143 143 143 144 144 144 143 143 142 140 139 137 135 134 133 132 130 130 129 129 129 129 129 129 129 129 129 129 128 127 126 125
17 19 20 22 24 27 29 31 34 36 39 41 43 45 47 49 50 52 54 56 59 61 64 67 69 72 75 78 80 83 85 88 90 92 95 98 101 104 108 112 116 120 124 128 131 134 137 139 141 142 142 143 143 143 143 143 143 143 144 144 143 143 141 140 139 137 135 134 133 131 130 130 129 128 128 128 128 128 128 128 128 128 127 126 125 125
17 18 20 21 23 25 28 30 32 35 37 39 42 44 46 47 49 51 53 55 58 60 63 65 68 71 74 76 79 82 84 86 88 91 93 96 99 103 107 111 115 119 123 127 131 134 137 139 140 141 142 142 143 143 143 143 143 143 143 143 143 142 141 140 139 137 136 134 133 131 130 129 128 127 127 127 127 127 127 127 127 127 127 126 125 124
17 18 20 21 23 25 27 29 31 34 36 38 41 43 45 47 48 50 53 55 57 59 62 64 67 70 72 75 77 80 82 85 87 90 92 95 98 102 106 110 114 118 122 126 130 133 136 138 140 141 142 142 143 143 143 142 143 143 143 143 143 143 142 140 139 137 136 134 133 131 130 129 128 127 126 126 126 126 126 126 126 126 126 125 125 125
17 18 20 22 23 25 27 29 31 34 36 38 40 42 44 46 49 51 53 55 57 59 61 64 66 68 71 73 76 78 81 83 86 88 91 94 97 101 105 109 113 117 121 125 128 131 134 137 139 140 141 142 142 142 142 142 142 143 143 143 143 143 142 141 140 138 136 134 133 131 130 128 127 126 126 126 125 125 125 125 126 126 125 125 125 125
17 19 21 22 24 26 28 30 32 34 36 38 40 43 45 47 49 51 53 55 57 59 61 63 65 67 70 72 75 77 80 83 85 88 90 93 97 101 105 109 112 116 120 124 127 130 133 135 137 139 141 141 142 142 142 142 142 142 142 143 143 143 142 141 140 139 137 134 133 131 129 128 127 126 125 125 125 124 124 124 125 125 125 125 125 126
17 19 21 23 25 27 29 31 33 35 37 39 41 44 46 48 50 52 53 55 57 58 60 62 64 67 69 72 74 77 80 82 85 87 90 93 96 100 104 108 111 115 119 123 126 130 132 135 137 138 140 140 141 141 141 141 141 141 142 142 143 143 143 142 140 138 136 134 133 131 129 128 126 125 124 124 123 123 123 124 124 125 125 125 125 126
18 20 22 24 26 27 29 31 34 36 38 40 42 44 46 48 50 52 53 55 56 58 60 62 64 66 69 71 74 77 79 82 84 86 89 92 95 99 103 106 110 114 118 121 125 129 132 134 136 137 139 139 140 139 139 139 140 140 141 142 142 143 142 141 139 137 136 134 132 131 129 128 126 124 123 122 122 122 122 123 123 124 125 125 125 126
17 20 22 24 26 28 30 32 34 36 38 41 43 45 47 48 50 52 53 54 56 58 59 61 64 66 69 71 74 76 78 81 83 86 88 91 94 98 102 105 108 112 116 120 124 128 131 133 135 137 137 138 139 139 138 138 138 139 141 142 142 142 141 140 138 137 135 134 133 131 130 128 126 124 123 122 121 121 121 122 123 124 124 125 125 126
17 19 22 24 26 28 30 32 34 36 38 41 43 45 46 48 50 51 52 54 56 57 59 61 64 66 69 71 74 76 78 80 83 85 88 91 93 97 100 103 107 111 115 119 123 126 130 132 135 136 137 137 137 138 138 138 139 140 141 142 142 142 141 139 138 136 135 134 133 131 130 128 126 124 123 122 121 121 121 122 123 123 124 124 124 125
17 19 21 23 25 27 29 32 34 36 38 40 42 44 46 47 49 50 52 54 55 57 59 61 64 66 69 71 74 76 78 80 83 85 88 90 93 96 99 103 107 111 114 118 122 125 128 131 133 135 136 137 137 137 137 138 139 140 141 142 142 141 140 139 138 136 135 134 133 131 129 127 126 124 123 122 121 121 121 122 122 123 123 123 123 124
16 18 20 22 25 27 29 31 33 35 37 39 41 43 45 46 48 50 52 53 55 57 59 61 64 66 68 71 73 76 78 80 83 85 87 89 92 95 98 102 106 110 114 117 121 124 127 129 131 133 134 135 136 136 137 138 139 140 141 142 142 141 140 139 138 137 135 134 132 130 128 127 125 124 123 122 121 121 121 121 121 122 122 121 122 122
15 17 20 22 24 26 28 30 32 34 36 38 40 42 44 46 47 49 51 53 55 57 59 61 64 66 68 71 73 76 78 81 83 85 86 89 91 94 98 102 106 110 113 117 120 123 126 128 130 132 133 134 135 136 137 138 139 139 140 141 141 140 139 138 137 136 135 133 131 130 128 126 125 123 122 122 121 120 120 120 121 121 120 120 121 121
14 17 19 21 23 25 27 29 31 33 35 37 39 41 43 45 47 49 51 53 55 57 59 62 64 67 69 72 74 77 79 81 83 84 86 88 91 95 99 103 106 110 113 117 120 123 125 128 129 131 132 133 134 135 136 137 138 139 139 140 139 138 137 137 136 135 134 132 130 128 127 125 123 122 122 121 120 120 120 120 120 120 120 120 120 121
14 16 18 20 22 24 26 28 30 32 34 36 38 40 43 45 47 49 51 53 55 57 60 62 65 67 70 73 75 77 79 80 82 83 85 88 92 96 100 103 107 110 113 117 120 123 125 127 129 131 132 133 134 135 136 137 137 138 138 138 137 137 137 137 136 135 133 131 129 128 126 124 123 122 121 121 120 119 119 120 120 120 119 119 120 121
13 15 17 19 21 23 25 27 30 32 34 36 38 40 42 44 46 48 50 53 55 57 60 62 65 68 70 73 75 76 78 79 80 82 84 88 92 96 100 104 107 110 114 117 120 124 126 128 129 130 131 132 133 134 135 136 137 137 137 137 137 137 138 137 136 134 133 131 129 128 126 125 123 121 121 120 120 119 119 119 119 118 118 118 119 121
12 14 16 18 20 22 25 27 29 31 33 36 38 40 42 44 46 48 50 53 55 57 60 62 65 67 69 71 72 73 74 75 77 79 83 88 92 96 100 104 107 111 114 117 120 123 126 127 128 129 130 131 133 134 135 136 136 136 136 136 137 137 137 136 135 134 133 132 130 129 127 125 123 122 120 119 119 119 119 118 118 117 117 118 119 121
12 14 16 18 20 22 24 26 29 31 33 35 37 39 42 44 46 48 50 52 54 57 59 61 63 64 66 67 67 68 69 71 74 78 83 87 92 96 100 104 107 111 114 117 120 122 124 125 127 128 130 132 133 134 135 136 136 136 136 137 137 137 136 135 135 134 134 132 131 129 128 126 124 122 120 119 118 118 118 117 116 116 116 118 119 120
12 14 16 18 20 22 24 26 28 30 33 35 37 39 41 43 45 47 49 52 54 55 57 59 60 61 62 63 64 66 68 71 74 79 83 87 91 95 99 103 107 110 114 117 120 122 123 125 126 128 131 132 133 134 134 135 135 136 136 137 137 136 136 135 135 134 133 131 130 129 128 126 124 122 120 119 118 117 116 115 114 115 116 117 118 119
12 14 15 18 20 22 24 26 28 30 32 35 37 39 41 43 45 47 49 51 52 54 56 57 58 60 61 63 65 68 71 74 77 81 84 88 91 95 98 102 105 109 113 116 119 121 123 124 126 129 131 132 133 134 134 134 135 135 136 136 136 135 134 134 134 133 131 130 129 128 127 126 124 121 119 118 118 117 115 114 113 114 116 117 117 117
12 14 15 17 19 22 24 26 28 30 32 34 36 38 40 42 44 46 48 50 52 53 55 56 58 60 62 64 67 70 73 76 79 83 86 89 92 95 98 101 105 109 112 116 118 120 122 124 126 128 130 132 133 133 134 134 134 134 134 134 134 133 133 133 132 131 130 129 128 128 127 126 124 121 118 118 118 117 115 114 114 114 116 116 116 115
12 14 15 17 19 21 24 26 28 30 32 34 36 38 40 42 44 46 48 50 51 53 55 57 58 60 63 65 68 71 74 77 80 83 87 90 93 96 99 102 106 109 113 116 118 120 122 124 126 128 130 131 131 132 132 133 133 133 133 133 133 133 133 132 131 130 129 128 128 127 126 125 123 120 118 118 118 117 115 115 114 115 115 115 114 113
12 14 15 17 19 21 23 26 28 30 32 34 36 38 40 42 44 46 48 50 52 53 55 57 59 61 64 66 68 71 73 77 80 83 87 90 94 97 101 104 108 111 114 116 118 120 123 125 127 129 130 130 130 131 131 132 132 132 132 132 133 132 132 132 131 130 129 128 127 127 126 125 122 120 118 117 117 116 116 115 115 115 115 114 113 112
Wind_Direction
218 217 217 216 215 215 215 215 215 215 215 215 215 215 215 215 215 215 215 215 215 215 215 215 215 215 216 216 216 216 216 216 216 216 216 215 215 215 215 215 215 215 216 216 216 217 217 217 217 218 218 218 218 218 218 218 218 218 218 217 217 217 217 217 217 217 217 217 218 218 218 218 219 219 219 220 220 221 221 221 222 222 223 223 223 222
218 217 217 216 215 215 214 214 214 214 215 215 215 215 215 215 215 215 215 215 215 215 215 215 215 215 215 215 216 216 216 216 216 216 215 215 215 215 215 215 215 215 215 215 216 216 217 217 217 217 217 218 218 218 218 218 218 218 217 217 217 217 216 216 216 217 217 217 217 217 217 218 218 218 219 219 219 220 220 221 221 221 222 222 222 221
218 217 217 216 215 214 214 214 214 214 214 214 214 215 215 215 215 215 215 215 215 215 215 215 215 215 215 215 215 215 215 216 216 215 215 215 215 215 214 214 214 214 215 215 215 216 216 216 216 217 217 217 217 217 217 217 217 217 217 217 217 216 216 216 216 216 216 216 216 216 217 217 217 218 218 218 218 219 219 219 220 220 221 221 221 220
218 217 217 216 215 215 214 214 213 213 213 214 214 214 214 214 214 214 214 214 214 214 214 214 214 214 214 215 215 215 215 215 215 215 215 215 215 214 214 214 214 214 214 214 215 215 215 216 216 216 216 216 217 217 217 217 217 217 217 217 217 216 216 215 215 216 216 216 216 216 216 216 217 217 217 217 218 218 218 218 219 219 220 220 220 219
217 217 217 216 216 215 214 214 213 213 213 213 213 213 214 214 214 214 214 214 214 214 214 214 214 214 214 214 214 215 215 215 215 215 215 215 215 214 214 214 214 214 214 214 214 215 215 215 215 216 216 216 216 216 216 216 217 217 217 217 216 216 215 215 215 215 215 215 215 215 215 216 216 216 217 217 217 217 217 217 218 218 219 219 219 219
217 217 217 216 216 215 214 214 213 213 213 213 213 213 213 213 214 214 214 214 214 214 214 214 214 214 214 214 214 214 214 214 215 215 215 215 214 214 214 214 213 213 213 213 214 214 214 215 215 215 215 215 216 216 216 216 216 216 216 216 216 215 215 214 215 215 215 215 215 215 215 215 216 216 216 217 217 217 217 217 217 217 218 218 218 218
217 216 216 216 216 215 215 214 214 213 213 213 212 213 213 213 213 213 213 214 214 214 213 213 213 213 213 214 214 214 214 214 214 214 214 214 214 214 214 213 213 213 213 213 213 213 214 214 214 215 215 215 215 215 216 216 216 216 216 216 215 215 214 214 214 214 215 214 214 214 215 215 215 216 216 216 216 216 216 216 216 216 217 217 217 218
216 216 216 216 216 215 215 214 214 213 213 212 212 212 212 213 213 213 213 213 213 213 213 213 213 213 213 213 213 213 213 214 214 214 214 214 214 214 214 213 213 213 213 213 213 213 213 214 214 214 214 215 215 215 215 215 215 215 215 215 215 214 214 213 214 214 214 214 214 214 214 214 215 215 216 216 216 216 216 215 215 216 216 216 217 217
216 215 215 215 215 215 215 215 214 214 213 213 212 212 212 212 212 213 213 213 213 213 213 213 213 213 213 213 213 213 213 213 213 214 214 214 214 214 213 213 213 213 212 212 212 213 213 213 213 214 214 214 214 214 215 215 215 215 215 215 214 214 213 213 213 213 214 213 213 213 213 214 214 215 215 216 216 215 215 215 215 215 215 216 216 217
216 215 215 215 215 215 215 215 214 214 213 213 212 212 212 212 212 212 212 212 212 212 212 212 212 212 212 212 213 213 213 213 213 213 213 213 213 213 213 213 213 212 212 212 212 212 212 213 213 213 213 213 214 214 214 214 215 215 215 215 214 213 213 212 213 213 213 213 213 213 213 213 213 214 214 215 215 215 215 215 215 215 215 215 215 216
217 216 215 214 214 214 215 215 215 214 214 213 213 212 212 212 212 212 212 212 212 212 212 212 212 212 212 212 212 212 212 212 212 213 213 213 213 213 213 213 212 212 212 212 212 212 212 212 212 213 213 213 213 213 214 214 214 214 214 214 214 213 212 212 212 213 213 213 212 212 212 212 213 213 214 214 215 215 215 215 214 214 214 214 215 215
218 216 215 214 214 214 214 214 215 214 214 213 213 212 212 212 211 211 211 212 212 212 212 212 212 212 212 212 212 212 212 212 212 212 212 212 213 213 213 212 212 212 212 211 211 211 211 212 212 212 212 212 213 213 213 213 213 214 214 213 213 212 212 211 212 212 212 212 212 212 212 212 212 212 213 214 214 214 214 214 214 214 214 214 214 215
218 217 216 215 214 214 214 214 214 214 214 214 213 213 212 212 211 211 211 211 211 211 211 211 211 211 211 211 211 211 212 212 212 212 212 212 212 212 212 212 212 212 211 211 211 211 211 211 211 211 212 212 212 212 213 213 213 213 213 213 212 212 211 211 211 212 212 212 211 211 211 211 211 212 212 213 213 213 214 213 213 213 213 213 214 214
219 218 217 215 214 214 213 213 214 214 214 214 214 213 213 212 212 211 211 211 211 211 211 211 211 211 211 211 211 211 211 211 211 211 211 212 212 212 212 212 212 211 211 211 211 211 211 211 211 211 211 211 211 212 212 212 213 213 213 212 212 211 211 211 211 211 211 211 211 211 211 211 211 211 212 212 212 213 213 213 213 213 213 213 213 214
220 219 217 216 215 214 213 213 213 214 214 214 214 213 213 212 212 211 211 211 210 210 210 210 211 210 210 210 211 211 211 211 211 211 211 211 211 211 211 211 211 211 211 210 210 210 210 210 210 210 211 211 211 211 212 212 212 212 212 212 212 211 211 210 211 211 211 211 210 210 210 210 210 211 211 212 212 212 212 212 212 212 212 212 213 213
220 219 218 217 216 215 214 213 213 213 214 214 214 213 213 212 212 211 211 211 210 210 210 210 210 210 210 210 210 210 210 211 211 211 211 211 211 211 211 211 211 211 210 210 210 210 210 210 210 210 210 210 210 211 211 211 211 212 212 211 211 211 210 210 210 210 210 210 210 210 210 210 210 210 211 211 211 212 212 212 212 212 212 212 212 213
221 220 219 218 217 215 214 213 213 213 213 213 214 213 213 213 212 212 211 211 210 210 210 209 209 209 209 210 210 210 210 210 210 210 210 210 210 210 210 210 210 210 210 210 210 209 209 209 209 209 209 210 210 210 210 211 211 211 211 211 211 210 210 210 210 210 210 210 209 209 209 209 209 210 210 211 211 211 211 211 211 211 211 212 212 212
221 220 220 219 218 216 215 214 213 213 213 213 213 213 213 213 213 212 211 211 210 210 209 209 209 209 209 209 209 209 210 210 210 210 210 210 210 210 210 210 210 210 210 209 209 209 209 209 209 209 209 209 209 210 210 210 210 210 210 210 210 210 210 210 210 210 210 210 209 209 209 209 209 209 210 210 210 211 211 211 211 211 211 211 211 212
220 220 220 220 219 217 216 215 214 213 213 213 213 213 213 213 213 212 212 211 210 210 209 209 208 208 208 208 209 209 209 209 209 209 209 209 209 209 209 209 209 209 209 209 209 209 208 208 208 208 208 208 209 209 209 210 210 210 210 210 210 210 210 210 210 210 210 209 209 209 208 208 209 209 209 210 210 210 211 211 211 211 211 211 211 211
220 220 220 220 219 218 217 216 215 214 213 212 212 213 213 213 213 212 212 211 210 209 209 209 208 208 208 208 208 208 209 209 209 209 209 209 209 209 209 209 209 209 209 209 208 208 208 208 208 208 208 208 208 208 209 209 209 209 209 209 209 209 209 209 210 210 210 209 209 208 208 208 208 208 209 209 210 210 210 211 211 211 211 210 211 211
218 218 219 219 219 219 218 217 215 214 213 212 212 212 212 212 212 212 211 211 210 209 209 208 208 207 207 207 208 208 208 208 208 208 208 208 208 208 208 208 208 208 208 208 208 208 207 207 207 207 207 208 208 208 208 208 208 209 209 209 209 209 209 209 209 209 209 209 209 208 208 208 208 208 208 209 209 210 210 210 210 210 210 210 210 210
217 217 218 218 218 218 218 217 215 214 213 213 212 212 212 212 212 212 211 210 210 209 208 208 207 207 207 207 207 207 207 208 208 208 208 208 208 208 208 208 208 208 208 208 207 207 207 207 207 207 207 207 207 207 207 208 208 208 208 208 209 209 209 209 209 209 209 209 208 208 208 208 208 208 208 208 209 209 210 210 210 210 210 210 210 210
218 217 217 217 217 217 217 216 215 214 213 212 212 211 211 211 211 211 211 210 209 209 208 208 207 207 206 206 206 207 207 207 207 207 207 207 207 207 207 207 207 207 207 207 207 206 206 206 206 206 206 206 207 207 207 207 207 207 207 208 208 208 209 209 209 209 209 209 208 208 208 207 207 207 208 208 208 209 209 210 210 210 210 210 210 210
220 218 217 217 217 216 216 215 214 214 213 212 211 210 210 210 210 210 210 210 209 208 208 207 207 206 206 206 206 206 206 206 207 207 207 207 207 207 207 207 207 207 206 206 206 206 206 206 206 206 206 206 206 206 206 206 206 207 207 207 208 208 208 209 209 209 209 208 208 208 207 207 207 207 207 208 208 209 209 209 210 210 210 210 209 209
221 219 218 217 217 217 216 215 214 213 212 211 210 209 209 209 209 209 209 209 208 208 207 207 206 206 205 205 205 205 206 206 206 206 206 206 206 206 206 206 206 206 206 206 205 205 205 205 205 205 205 205 205 205 205 206 206 206 206 207 207 208 208 208 208 208 208 208 208 207 207 207 207 207 207 207 208 208 209 209 209 209 210 209 209 209
221 220 218 218 218 217 217 216 214 213 212 211 209 209 208 208 208 208 208 208 207 207 207 206 206 205 205 204 205 205 205 205 205 205 205 205 205 205 205 205 205 205 205 205 205 204 204 204 204 204 204 205 205 205 205 205 205 205 206 206 207 207 207 208 208 208 208 208 208 207 207 207 207 207 207 207 207 208 208 209 209 209 209 209 209 209
219 218 218 217 217 217 217 216 215 213 212 210 209 208 207 207 206 206 207 207 206 206 206 206 205 205 204 204 204 204 204 205 205 205 205 205 205 205 205 204 204 204 204 204 204 204 204 204 204 204 204 204 204 204 204 204 204 205 205 205 206 207 207 207 208 208 208 208 207 207 207 207 207 207 207 207 207 208 208 208 209 209 209 209 209 208
216 216 215 216 216 216 216 216 215 213 212 210 208 207 206 205 205 205 205 205 205 205 205 205 204 204 204 204 203 204 204 204 204 204 204 204 204 204 204 204 203 203 203 203 203 203 203 203 203 203 203 203 203 203 203 204 204 204 204 205 205 206 206 207 207 207 207 207 207 207 207 206 206 206 206 206 207 207 208 208 208 209 209 209 209 208
212 212 212 212 213 214 214 214 214 212 211 209 208 206 205 204 204 203 204 204 204 205 205 204 204 203 203 203 203 203 203 203 203 203 203 203 203 203 203 203 202 202 202 202 202 202 202 202 202 202 202 202 203 203 203 203 203 203 204 204 205 205 206 206 207 207 207 207 207 207 206 206 206 206 206 206 207 207 207 208 208 208 209 209 208 208
207 207 207 208 209 210 211 212 212 210 209 208 206 205 203 203 202 202 202 202 203 203 203 203 203 203 203 202 202 202 202 203 203 203 202 202 202 202 202 202 202 201 201 201 201 201 201 201 202 202 202 202 202 202 202 202 202 203 203 204 204 205 205 206 206 206 207 207 207 207 206 206 206 206 206 206 206 207 207 207 208 208 208 208 208 208
201 201 202 203 204 206 207 208 208 208 207 205 204 202 201 200 200 200 200 201 202 202 202 202 202 202 202 202 201 201 202 202 202 202 201 201 201 201 201 201 201 200 200 200 200 200 200 201 201 201 201 201 201 201 201 202 202 202 202 203 203 204 205 205 206 206 206 206 206 206 206 206 206 206 206 206 206 206 207 207 207 208 208 208 208 208
196 196 197 197 199 200 202 203 203 204 203 202 201 200 199 198 198 198 199 199 200 201 201 201 201 201 201 201 201 201 201 201 201 201 201 200 200 200 200 200 200 199 199 199 200 200 200 200 200 200 200 200 201 201 201 201 201 201 202 202 203 203 204 205 205 206 206 206 206 206 206 206 206 206 206 206 206 206 206 207 207 207 208 208 208 208
191 191 192 193 194 195 196 198 199 199 199 199 198 197 197 196 196 197 197 198 198 199 199 200 200 200 200 200 200 200 200 200 200 200 200 199 199 199 199 199 199 199 199 199 199 199 199 199 199 199 200 200 200 200 200 200 200 201 201 202 202 203 204 204 205 205 205 206 206 206 206 206 206 206 205 205 206 206 206 206 207 207 207 207 208 208
188 188 188 189 190 191 192 193 194 195 195 195 195 195 194 194 195 195 196 196 197 197 198 198 198 199 199 199 199 199 199 199 200 199 199 199 198 198 198 198 198 198 198 198 198 198 198 199 199 199 199 199 199 199 199 200 200 200 200 201 202 202 203 204 204 205 205 205 205 206 206 206 206 205 205 205 205 205 206 206 207 207 207 207 207 208
186 186 186 186 187 188 189 190 191 192 192 192 192 193 193 193 193 194 194 195 195 196 196 197 197 197 197 197 198 198 198 199 199 199 198 198 198 198 198 197 197 197 197 197 197 197 197 198 198 198 198 198 199 199 199 199 199 199 200 201 201 202 203 203 204 204 204 205 205 205 205 205 205 205 205 205 205 205 205 206 206 207 207 207 207 208
184 184 184 185 185 186 187 188 189 189 190 190 191 191 191 192 192 192 193 193 193 194 194 195 195 196 196 196 197 197 198 198 198 198 198 198 197 197 197 197 197 196 196 196 196 196 197 197 197 198 198 198 198 198 198 198 199 199 199 200 201 202 202 203 204 204 204 204 204 205 205 205 205 205 205 205 205 205 205 206 206 207 207 207 207 208
183 183 184 184 185 185 186 187 187 188 189 189 190 190 190 190 191 191 191 191 192 192 193 193 194 194 195 195 196 197 197 197 197 197 197 197 197 197 197 196 196 196 196 196 196 196 196 196 197 197 197 197 197 197 198 198 198 198 199 200 201 201 202 203 203 203 204 204 204 204 204 205 205 205 205 205 205 205 205 206 206 207 207 207 207 208
183 183 183 184 184 185 185 186 187 187 188 188 189 189 189 189 190 190 190 190 190 191 191 192 193 193 194 194 195 196 196 196 197 197 197 196 196 196 196 195 195 195 195 195 195 195 195 196 196 196 196 197 197 197 197 197 198 198 199 199 200 201 202 202 203 203 203 204 204 204 204 204 204 204 204 204 205 205 205 206 206 207 207 207 207 208
182 182 183 183 184 184 185 185 186 187 187 188 188 188 188 188 188 189 189 189 189 190 190 191 192 192 193 193 194 194 195 196 196 196 196 196 195 195 195 195 194 195 195 195 195 195 195 195 195 195 196 196 196 196 196 196 197 198 198 199 200 201 201 202 202 203 203 204 204 204 204 204 203 203 204 204 204 205 205 206 206 207 207 207 208 208
181 182 182 183 183 184 184 185 185 186 186 187 187 187 187 187 187 187 187 188 188 188 189 190 191 191 192 193 193 194 194 195 195 195 195 195 194 194 194 194 194 194 194 194 194 194 195 195 195 195 195 195 195 195 196 196 197 197 198 199 199 200 201 201 202 202 203 203 204 204 204 204 203 203 203 204 204 204 205 206 206 207 207 207 208 208
179 180 181 182 182 183 183 184 184 185 185 186 186 186 186 186 186 186 186 187 187 188 188 189 190 191 191 192 193 193 194 195 195 195 194 193 193 193 193 193 193 193 193 193 193 194 194 194 194 195 194 194 195 195 195 196 196 197 198 199 199 200 200 201 201 202 203 203 203 203 204 204 203 203 203 203 204 204 205 205 206 207 207 207 208 208
177 179 180 180 181 182 182 183 183 184 184 185 185 185 185 185 185 185 186 186 186 187 187 188 189 190 191 191 192 193 194 194 194 194 193 192 192 192 192 192 192 192 192 192 193 193 193 194 194 194 194 194 194 194 195 195 196 197 198 198 199 199 200 200 201 202 202 203 203 203 203 204 203 203 203 203 204 204 205 205 206 206 206 207 208 208
174 176 177 179 179 180 181 181 182 182 183 183 184 184 184 184 185 185 185 185 186 186 187 188 189 190 191 191 192 193 194 194 193 192 192 191 191 191 191 191 191 191 192 192 192 192 193 193 193 193 193 193 194 194 194 195 196 197 197 198 199 199 200 200 201 202 202 202 203 203 203 204 204 203 203 203 204 204 205 205 206 206 206 207 208 209
171 173 175 176 178 178 179 180 180 181 182 182 183 183 183 184 184 184 184 185 186 186 187 188 189 190 191 192 193 193 193 193 192 191 191 190 190 191 191 191 191 191 191 191 191 191 192 192 193 193 193 193 193 194 194 195 195 196 197 197 198 199 199 200 201 201 202 202 202 203 203 204 204 204 203 203 204 204 205 205 205 205 205 207 208 209
168 170 172 174 175 176 177 178 179 180 180 181 182 182 182 183 183 184 184 185 185 186 187 188 189 190 191 192 193 193 192 192 191 190 190 190 190 191 190 190 190 190 190 190 191 191 191 192 192 192 192 192 193 193 194 195 195 196 196 197 198 198 199 200 200 200 201 201 202 202 203 203 204 204 203 203 204 204 205 205 205 205 206 207 208 209
164 168 170 172 173 175 176 177 178 178 179 180 181 181 182 182 183 183 184 185 185 186 188 188 190 190 191 192 192 191 191 190 189 189 190 190 190 191 190 190 189 189 189 190 190 191 191 191 191 191 191 192 193 193 194 194 195 195 196 196 197 198 199 199 200 200 201 201 201 202 202 203 203 203 203 203 204 205 205 205 205 205 206 207 208 209
161 165 168 170 172 173 174 176 177 178 178 179 180 180 181 182 182 183 184 184 185 186 187 188 189 190 190 190 190 189 188 188 188 189 190 190 190 190 190 190 189 189 189 189 190 190 190 190 190 190 191 192 192 193 193 194 194 195 195 196 197 198 199 199 200 200 201 201 201 202 202 203 203 203 203 203 204 205 205 205 205 206 207 208 209 209
158 162 166 168 170 172 173 174 176 177 178 178 179 180 180 181 182 182 183 184 185 186 186 187 188 188 188 188 187 187 187 187 188 188 189 190 190 190 190 189 189 189 189 189 189 189 189 189 190 190 191 192 192 193 193 194 194 195 195 196 197 198 198 199 200 200 200 200 201 201 202 203 203 203 202 203 204 205 205 205 206 207 208 209 209 209
156 160 164 167 169 171 172 174 175 176 177 178 178 179 180 180 181 182 182 183 184 185 185 186 186 187 187 187 187 187 187 187 187 188 188 189 189 189 189 189 189 189 189 189 189 189 189 189 189 190 191 192 192 192 193 193 194 195 195 196 197 197 198 199 200 200 200 200 201 201 202 203 203 202 202 203 204 204 204 205 206 207 208 209 208 208
154 158 162 165 168 170 171 173 174 175 176 177 178 178 179 180 180 181 182 182 183 183 184 185 185 186 186 187 187 187 187 187 187 188 188 188 188 188 188 188 188 188 188 188 188 188 188 188 189 190 191 192 192 192 192 193 194 194 195 196 196 197 198 199 200 200 200 201 201 201 202 203 203 203 202 203 203 204 204 205 206 208 208 208 208 208
152 157 161 164 167 169 171 172 174 175 176 176 177 178 178 179 180 180 181 181 182 183 183 184 184 185 186 186 187 187 187 188 188 188 187 187 187 187 187 187 187 187 188 188 188 187 187 187 188 190 191 191 192 192 192 193 193 194 195 196 196 197 198 199 199 200 200 201 201 201 202 203 203 203 203 203 203 203 204 205 207 208 208 208 207 207
Height
9984 9988 9992 9997 10001 10005 10010 10015 10021 10027 10033 10039 10046 10052 10059 10066 10072 10079 10087 10093 10101 10109 10117 10125 10134 10143 10152 10162 10172 10182 10192 10202 10212 10223 10234 10245 10257 10268 10280 10292 10303 10314 10325 10336 10347 10357 10367 10377 10387 10397 10407 10418 10429 10440 10450 10461 10471 10482 10494 10505 10515 10526 10537 10548 10557 10566 10575 10584 10593 10602 10608 10615 10623 10632 10640 10647 10653 10661 10668 10675 10682 10688 10695 10701 10707 10714
9980 9984 9988 9992 9996 10000 10005 10010 10016 10021 10027 10033 10040 10046 10053 10059 10066 10073 10080 10087 10095 10102 10110 10118 10127 10136 10145 10155 10164 10174 10184 10194 10204 10215 10226 10237 10248 10260 10272 10283 10295 10306 10317 10328 10339 10350 10360 10370 10380 10390 10401 10412 10423 10433 10444 10454 10465 10475 10487 10497 10508 10519 10531 10542 10551 10559 10568 10577 10587 10595 10603 10608 10615 10623 10632 10642 10650 10655 10662 10670 10677 10683 10690 10696 10703 10709
9977 9980 9984 9988 9992 9996 10000 10005 10010 10015 10021 10027 10033 10040 10047 10053 10060 10067 10073 10080 10088 10095 10103 10112 10120 10129 10138 10147 10157 10167 10177 10187 10197 10207 10217 10228 10240 10252 10263 10275 10286 10297 10308 10319 10330 10340 10351 10361 10372 10382 10393 10404 10415 10426 10437 10447 10457 10468 10480 10490 10500 10512 10526 10537 10545 10553 10561 10570 10580 10589 10597 10602 10608 10617 10625 10635 10643 10649 10655 10663 10671 10678 10684 10691 10697 10703
9973 9977 9980 9984 9988 9992 9996 10000 10005 10010 10016 10022 10028 10034 10041 10047 10053 10060 10067 10074 10082 10089 10097 10105 10113 10122 10132 10140 10150 10159 10169 10178 10188 10199 10210 10220 10232 10243 10255 10266 10278 10289 10300 10311 10322 10332 10342 10352 10362 10373 10384 10395 10407 10418 10428 10439 10450 10462 10472 10483 10494 10507 10520 10530 10538 10545 10554 10564 10573 10582 10590 10596 10603 10612 10619 10628 10635 10642 10650 10658 10666 10673 10679 10686 10692 10697
9970 9973 9977 9981 9984 9988 9992 9997 10001 10006 10011 10017 10022 10028 10035 10041 10048 10055 10062 10068 10076 10083 10091 10099 10107 10116 10125 10133 10143 10152 10162 10172 10181 10192 10202 10213 10223 10235 10247 10258 10269 10281 10292 10303 10313 10324 10334 10344 10354 10365 10376 10387 10398 10409 10420 10432 10443 10454 10465 10475 10488 10502 10514 10523 10531 10538 10547 10557 10567 10575 10583 10590 10598 10606 10614 10623 10629 10635 10644 10653 10660 10667 10674 10680 10686 10690
9966 9970 9973 9977 9981 9985 9988 9992 9997 10001 10006 10011 10017 10023 10028 10035 10042 10049 10056 10063 10070 10077 10085 10093 10101 10110 10118 10127 10136 10145 10155 10164 10174 10184 10194 10205 10215 10227 10238 10249 10261 10272 10284 10295 10306 10317 10327 10337 10347 10358 10368 10380 10390 10402 10413 10425 10436 10447 10458 10469 10482 10495 10508 10518 10525 10532 10541 10551 10560 10569 10577 10584 10591 10600 10609 10618 10622 10628 10638 10647 10655 10662 10668 10675 10680 10685
9963 9967 9970 9973 9977 9981 9985 9989 9993 9997 10002 10007 10012 10018 10023 10030 10037 10043 10050 10057 10063 10071 10079 10087 10095 10103 10112 10120 10129 10138 10147 10157 10167 10177 10187 10197 10207 10218 10230 10241 10253 10265 10276 10287 10298 10309 10320 10330 10340 10351 10362 10373 10385 10396 10407 10419 10430 10440 10451 10463 10476 10489 10502 10512 10519 10526 10535 10545 10554 10563 10571 10578 10585 10593 10602 10608 10615 10623 10633 10641 10649 10657 10663 10670 10675 10680
9960 9963 9966 9970 9973 9978 9982 9985 9989 9993 9997 10002 10007 10013 10018 10025 10031 10038 10044 10051 10058 10066 10073 10082 10090 10097 10105 10114 10122 10132 10140 10150 10159 10169 10179 10189 10200 10210 10222 10233 10245 10257 10269 10280 10292 10302 10313 10323 10333 10344 10355 10367 10380 10392 10403 10414 10424 10434 10445 10457 10469 10482 10495 10505 10513 10520 10528 10538 10548 10557 10565 10573 10580 10587 10594 10602 10610 10618 10627 10635 10643 10651 10658 10664 10670 10674
9956 9959 9962 9966 9970 9974 9978 9982 9985 9990 9994 9998 10003 10008 10014 10020 10026 10032 10039 10046 10053 10061 10068 10076 10083 10092 10099 10107 10116 10125 10133 10143 10152 10162 10172 10182 10192 10203 10215 10227 10238 10250 10262 10273 10285 10295 10306 10317 10327 10338 10350 10362 10375 10387 10398 10408 10418 10428 10439 10450 10463 10476 10488 10499 10507 10513 10522 10532 10542 10551 10559 10567 10575 10582 10589 10597 10605 10613 10622 10630 10637 10645 10652 10658 10664 10669
9953 9956 9959 9963 9967 9971 9975 9978 9982 9987 9991 9995 10000 10005 10010 10015 10021 10027 10034 10041 10048 10055 10063 10070 10078 10085 10093 10102 10110 10118 10127 10137 10145 10155 10165 10175 10185 10197 10208 10220 10232 10243 10255 10267 10278 10289 10300 10310 10322 10333 10345 10357 10369 10380 10391 10401 10412 10422 10433 10444 10457 10470 10483 10493 10500 10507 10516 10526 10536 10545 10553 10562 10570 10577 10584 10592 10600 10608 10617 10624 10632 10639 10647 10653 10659 10664
9951 9953 9957 9960 9963 9967 9972 9975 9980 9983 9988 9992 9997 10001 10007 10012 10017 10023 10029 10035 10043 10050 10058 10065 10072 10080 10088 10096 10104 10113 10121 10130 10139 10148 10158 10168 10178 10190 10201 10213 10225 10236 10248 10260 10272 10282 10293 10305 10316 10327 10339 10351 10363 10373 10383 10392 10403 10414 10426 10438 10450 10464 10477 10487 10494 10501 10510 10520 10530 10539 10548 10556 10564 10572 10579 10587 10595 10604 10612 10619 10627 10634 10641 10647 10653 10659
9949 9952 9955 9957 9961 9964 9968 9972 9977 9980 9985 9988 9993 9997 10002 10007 10013 10018 10025 10031 10038 10045 10052 10060 10067 10075 10083 10090 10098 10107 10115 10123 10133 10142 10152 10162 10172 10183 10194 10205 10217 10228 10240 10252 10264 10276 10287 10298 10310 10322 10333 10345 10356 10365 10375 10385 10396 10407 10419 10432 10445 10458 10470 10480 10487 10494 10503 10513 10523 10533 10542 10550 10558 10566 10573 10582 10590 10599 10607 10614 10621 10628 10635 10642 10648 10654
9948 9950 9952 9955 9958 9962 9965 9969 9973 9977 9981 9985 9989 9993 9998 10003 10008 10015 10021 10027 10034 10041 10048 10055 10062 10070 10078 10085 10093 10101 10110 10118 10127 10135 10145 10155 10165 10176 10187 10198 10209 10221 10233 10245 10258 10269 10281 10292 10304 10315 10327 10338 10349 10359 10369 10379 10390 10402 10413 10425 10438 10452 10463 10472 10479 10487 10497 10507 10517 10527 10536 10545 10553 10560 10568 10577 10585 10593 10602 10609 10616 10623 10630 10637 10643 10650
9945 9948 9950 9953 9956 9959 9963 9966 9970 9973 9977 9982 9986 9991 9996 10001 10006 10012 10017 10023 10030 10037 10043 10051 10058 10065 10073 10081 10088 10097 10104 10112 10121 10130 10139 10148 10158 10169 10180 10191 10202 10214 10227 10239 10251 10263 10274 10286 10297 10309 10320 10332 10342 10352 10363 10373 10385 10396 10407 10420 10432 10444 10455 10464 10472 10481 10490 10500 10511 10521 10530 10538 10547 10555 10563 10571 10579 10588 10595 10603 10610 10618 10625 10632 10638 10645
9944 9946 9948 9951 9954 9957 9960 9963 9967 9971 9975 9980 9984 9989 9994 9998 10003 10008 10013 10019 10025 10032 10039 10046 10053 10061 10068 10076 10084 10092 10099 10107 10115 10124 10133 10143 10152 10162 10173 10184 10195 10207 10220 10232 10244 10255 10267 10278 10290 10302 10314 10325 10335 10345 10356 10367 10378 10390 10402 10413 10425 10437 10448 10457 10466 10475 10484 10494 10505 10515 10524 10532 10541 10550 10557 10565 10573 10582 10590 10598 10605 10613 10620 10627 10634 10641
9942 9945 9947 9950 9952 9955 9958 9962 9965 9968 9973 9977 9982 9986 9990 9994 9999 10004 10010 10015 10022 10028 10035 10042 10049 10057 10064 10072 10079 10087 10094 10102 10110 10119 10128 10137 10147 10157 10167 10178 10190 10202 10213 10225 10237 10248 10260 10272 10284 10296 10307 10318 10329 10339 10350 10360 10372 10383 10396 10408 10420 10431 10442 10452 10461 10469 10478 10488 10498 10508 10517 10527 10535 10543 10552 10560 10568 10577 10585 10592 10600 10607 10615 10622 10630 10637
9941 9943 9946 9948 9951 9953 9957 9959 9963 9966 9970 9974 9978 9983 9987 9992 9997 10002 10007 10013 10019 10025 10031 10038 10045 10052 10060 10067 10075 10082 10090 10097 10105 10113 10122 10131 10141 10151 10162 10173 10184 10195 10207 10219 10230 10242 10253 10266 10278 10290 10301 10312 10323 10333 10343 10354 10366 10378 10390 10402 10413 10425 10435 10446 10455 10463 10472 10482 10492 10502 10512 10521 10530 10538 10546 10555 10563 10571 10579 10587 10595 10602 10610 10617 10625 10632
9940 9942 9945 9947 9950 9952 9955 9958 9961 9964 9968 9972 9976 9980 9985 9990 9995 10000 10005 10010 10016 10022 10028 10035 10042 10048 10056 10063 10070 10078 10085 10093 10101 10109 10118 10127 10136 10146 10157 10167 10178 10189 10200 10212 10223 10235 10247 10260 10273 10284 10295 10307 10317 10327 10338 10349 10361 10373 10385 10397 10408 10420 10430 10439 10447 10456 10466 10476 10487 10497 10506 10515 10523 10532 10541 10549 10557 10565 10573 10582 10590 10597 10605 10613 10620 10627
9938 9941 9943 9946 9948 9951 9953 9956 9959 9962 9965 9969 9973 9978 9982 9987 9992 9997 10002 10007 10013 10019 10025 10032 10038 10045 10053 10060 10067 10073 10081 10088 10097 10105 10113 10122 10132 10141 10152 10162 10172 10183 10194 10205 10217 10228 10242 10255 10267 10278 10290 10301 10312 10322 10333 10345 10357 10368 10380 10392 10403 10414 10424 10433 10442 10450 10461 10471 10481 10491 10501 10510 10518 10527 10535 10544 10552 10560 10568 10577 10585 10592 10600 10608 10615 10623
9937 9940 9942 9945 9947 9950 9952 9955 9958 9961 9964 9968 9972 9976 9980 9985 9990 9995 10000 10005 10011 10017 10023 10029 10035 10042 10050 10057 10063 10070 10078 10085 10093 10101 10109 10117 10126 10136 10146 10157 10167 10177 10188 10200 10212 10224 10237 10250 10262 10273 10285 10297 10307 10318 10329 10340 10352 10364 10376 10387 10398 10408 10418 10427 10437 10446 10456 10466 10476 10486 10495 10504 10513 10522 10530 10538 10547 10555 10563 10572 10580 10587 10595 10603 10610 10618
9935 9938 9940 9943 9946 9948 9951 9954 9957 9960 9963 9967 9970 9974 9978 9983 9988 9993 9998 10003 10009 10015 10021 10027 10033 10040 10047 10053 10060 10067 10074 10081 10088 10097 10104 10113 10122 10132 10142 10151 10162 10172 10183 10195 10207 10220 10233 10246 10258 10270 10282 10293 10303 10314 10325 10337 10348 10360 10372 10382 10393 10403 10412 10422 10431 10441 10451 10461 10471 10481 10490 10500 10508 10517 10525 10533 10542 10550 10558 10567 10575 10583 10590 10598 10606 10613
9933 9936 9938 9941 9944 9947 9950 9953 9956 9958 9962 9965 9968 9972 9977 9981 9986 9991 9996 10002 10007 10012 10018 10023 10030 10037 10044 10050 10057 10063 10070 10077 10085 10092 10100 10109 10118 10127 10137 10147 10157 10167 10178 10189 10202 10215 10228 10241 10253 10265 10277 10288 10299 10310 10321 10333 10344 10356 10367 10377 10387 10397 10407 10417 10426 10436 10446 10456 10467 10476 10486 10495 10503 10512 10520 10529 10537 10545 10553 10562 10570 10578 10586 10593 10602 10609
9933 9935 9937 9940 9942 9945 9948 9951 9953 9957 9960 9963 9967 9971 9975 9980 9984 9989 9994 10000 10005 10010 10016 10022 10028 10035 10042 10048 10054 10060 10067 10074 10081 10089 10097 10105 10113 10123 10132 10142 10152 10162 10173 10185 10197 10211 10224 10237 10248 10260 10272 10283 10294 10305 10317 10328 10340 10351 10362 10372 10382 10392 10402 10412 10422 10431 10441 10452 10462 10472 10481 10490 10498 10507 10515 10524 10533 10541 10549 10557 10565 10573 10581 10589 10597 10604
9933 9934 9936 9938 9941 9943 9946 9948 9952 9955 9958 9962 9965 9969 9973 9978 9983 9988 9993 9998 10003 10009 10015 10021 10027 10033 10039 10045 10052 10058 10064 10070 10078 10086 10094 10102 10109 10118 10128 10138 10148 10158 10169 10181 10194 10207 10220 10232 10243 10255 10267 10278 10290 10301 10312 10324 10335 10346 10357 10367 10377 10387 10397 10407 10417 10427 10437 10447 10457 10467 10477 10485 10493 10502 10511 10520 10528 10536 10544 10552 10560 10568 10576 10584 10592 10600
9932 9933 9935 9938 9940 9943 9945 9948 9950 9954 9957 9961 9964 9968 9972 9977 9981 9986 9992 9997 10002 10007 10013 10018 10024 10030 10035 10042 10048 10055 10060 10067 10075 10082 10090 10097 10106 10115 10125 10134 10144 10154 10165 10178 10190 10203 10215 10227 10238 10250 10262 10273 10285 10297 10308 10318 10330 10340 10351 10362 10372 10382 10392 10403 10413 10423 10433 10443 10453 10463 10472 10480 10489 10497 10506 10515 10523 10531 10539 10547 10555 10563 10571 10578 10587 10594
9931 9933 9935 9938 9940 9943 9945 9948 9951 9953 9956 9958 9962 9966 9970 9975 9979 9984 9989 9994 10000 10005 10010 10016 10022 10027 10034 10040 10046 10052 10058 10065 10072 10079 10087 10094 10103 10112 10122 10131 10141 10151 10163 10175 10188 10200 10211 10222 10233 10245 10257 10269 10280 10292 10302 10313 10324 10335 10346 10356 10367 10377 10388 10399 10409 10419 10429 10439 10448 10458 10467 10475 10484 10492 10501 10510 10518 10526 10534 10542 10550 10558 10565 10573 10581 10589
9930 9932 9935 9937 9940 9942 9945 9947 9950 9952 9955 9958 9962 9965 9969 9973 9978 9982 9987 9993 9998 10004 10010 10015 10020 10027 10033 10038 10044 10050 10056 10062 10069 10076 10083 10092 10100 10109 10118 10128 10138 10149 10160 10172 10184 10195 10207 10217 10229 10240 10252 10263 10275 10286 10297 10308 10318 10330 10341 10351 10362 10373 10384 10395 10404 10414 10424 10433 10443 10452 10462 10470 10479 10487 10496 10504 10512 10520 10528 10537 10544 10552 10560 10567 10575 10584
9929 9931 9933 9936 9938 9942 9944 9947 9950 9952 9955 9958 9962 9965 9969 9973 9977 9982 9987 9992 9998 10003 10008 10014 10020 10025 10031 10036 10042 10047 10053 10060 10067 10073 10082 10090 10098 10107 10115 10125 10135 10147 10157 10168 10179 10190 10201 10212 10223 10235 10247 10258 10269 10280 10292 10302 10313 10325 10336 10347 10357 10368 10379 10389 10399 10409 10419 10428 10437 10447 10457 10465 10473 10482 10491 10499 10507 10515 10523 10530 10538 10546 10554 10562 10571 10579
9928 9930 9932 9935 9937 9940 9943 9946 9949 9952 9955 9958 9961 9965 9968 9972 9977 9982 9987 9992 9997 10002 10007 10012 10018 10023 10028 10034 10040 10046 10052 10058 10064 10072 10080 10088 10095 10104 10113 10123 10132 10142 10153 10163 10173 10185 10196 10207 10218 10229 10241 10252 10263 10275 10286 10297 10309 10320 10331 10342 10353 10364 10374 10384 10394 10404 10415 10423 10433 10442 10452 10460 10468 10477 10486 10494 10502 10510 10517 10525 10533 10542 10550 10558 10567 10575
9927 9928 9931 9933 9936 9938 9942 9945 9948 9951 9954 9957 9960 9964 9968 9972 9976 9981 9986 9990 9995 10000 10005 10011 10016 10022 10027 10033 10038 10044 10050 10056 10063 10070 10078 10085 10093 10102 10111 10120 10128 10137 10147 10158 10168 10180 10191 10202 10213 10224 10235 10247 10258 10270 10280 10292 10303 10315 10326 10337 10348 10359 10370 10380 10390 10400 10410 10418 10427 10437 10447 10455 10464 10472 10481 10489 10497 10505 10513 10520 10528 10537 10545 10553 10562 10571
9925 9927 9929 9932 9934 9937 9940 9943 9946 9950 9953 9956 9960 9963 9967 9971 9975 9979 9983 9988 9993 9998 10003 10009 10014 10020 10025 10030 10036 10042 10047 10054 10061 10068 10075 10082 10090 10098 10107 10115 10123 10132 10142 10153 10163 10173 10184 10195 10206 10218 10230 10242 10253 10264 10275 10287 10298 10310 10322 10333 10344 10355 10366 10377 10387 10396 10404 10413 10423 10433 10442 10451 10460 10468 10477 10485 10492 10500 10508 10516 10524 10532 10541 10550 10558 10567
9925 9927 9928 9930 9933 9935 9938 9942 9945 9948 9951 9955 9958 9962 9965 9969 9973 9977 9982 9986 9991 9996 10002 10007 10012 10018 10023 10029 10034 10040 10047 10053 10060 10066 10072 10080 10087 10095 10102 10110 10118 10128 10138 10147 10157 10167 10177 10188 10200 10212 10223 10236 10248 10259 10269 10281 10293 10305 10317 10328 10340 10350 10360 10372 10382 10391 10399 10409 10418 10428 10438 10447 10455 10464 10472 10480 10488 10496 10504 10512 10520 10528 10537 10546 10554 10562
9924 9925 9927 9929 9932 9934 9937 9940 9943 9946 9950 9953 9957 9960 9964 9967 9971 9975 9979 9984 9989 9994 10000 10005 10010 10016 10022 10028 10033 10040 10046 10052 10058 10063 10070 10077 10085 10092 10098 10106 10115 10123 10133 10143 10153 10163 10173 10184 10195 10207 10218 10229 10241 10253 10265 10277 10288 10301 10313 10324 10335 10345 10355 10365 10375 10385 10395 10405 10415 10424 10433 10443 10451 10460 10468 10476 10483 10492 10500 10508 10517 10525 10533 10541 10549 10556
9924 9925 9927 9928 9930 9933 9935 9938 9941 9944 9948 9951 9955 9958 9962 9965 9969 9973 9977 9982 9987 9992 9998 10003 10009 10015 10020 10027 10032 10038 10044 10050 10055 10061 10067 10075 10081 10088 10095 10102 10111 10120 10130 10140 10150 10162 10173 10183 10193 10203 10214 10225 10236 10248 10262 10273 10285 10297 10309 10320 10330 10340 10350 10360 10370 10380 10390 10401 10410 10420 10429 10438 10447 10455 10463 10472 10480 10488 10496 10505 10513 10521 10528 10536 10543 10550
9924 9925 9927 9928 9930 9932 9935 9937 9940 9943 9946 9950 9953 9957 9960 9963 9967 9971 9975 9980 9985 9991 9996 10002 10008 10013 10019 10025 10030 10036 10041 10047 10052 10059 10065 10072 10078 10085 10092 10100 10108 10118 10128 10138 10148 10159 10170 10181 10192 10202 10212 10222 10233 10247 10259 10270 10282 10294 10306 10317 10326 10336 10346 10357 10367 10377 10387 10397 10407 10416 10425 10434 10443 10452 10460 10468 10476 10484 10493 10501 10509 10517 10523 10531 10538 10545
9925 9925 9927 9928 9930 9932 9934 9937 9939 9942 9945 9948 9952 9955 9958 9962 9966 9970 9975 9979 9984 9990 9995 10000 10007 10012 10018 10023 10029 10034 10039 10045 10051 10057 10064 10070 10077 10083 10091 10099 10107 10117 10126 10135 10145 10155 10165 10175 10187 10198 10210 10221 10233 10246 10258 10270 10281 10292 10303 10313 10323 10332 10342 10353 10364 10374 10383 10393 10402 10411 10420 10430 10440 10448 10457 10465 10472 10481 10490 10497 10505 10512 10518 10525 10533 10540
9925 9926 9927 9928 9930 9932 9934 9937 9939 9942 9945 9948 9951 9954 9957 9961 9965 9969 9974 9978 9983 9988 9994 9999 10005 10010 10016 10022 10027 10033 10038 10044 10050 10056 10063 10069 10077 10083 10090 10098 10107 10117 10125 10133 10142 10152 10162 10172 10183 10195 10207 10219 10230 10243 10258 10270 10281 10292 10301 10310 10320 10329 10339 10349 10360 10371 10380 10390 10398 10407 10415 10425 10435 10445 10455 10462 10470 10478 10487 10493 10500 10506 10513 10520 10528 10535
9926 9927 9928 9930 9931 9933 9935 9937 9939 9942 9945 9948 9950 9954 9957 9961 9965 9969 9973 9978 9983 9988 9993 9998 10003 10009 10014 10020 10025 10032 10037 10043 10049 10055 10062 10068 10075 10083 10090 10099 10108 10116 10124 10132 10141 10150 10161 10172 10182 10193 10204 10216 10228 10242 10255 10267 10278 10289 10298 10306 10315 10326 10337 10346 10357 10367 10377 10385 10393 10401 10411 10421 10431 10442 10452 10461 10469 10477 10484 10490 10495 10502 10509 10516 10523 10530
9927 9928 9929 9931 9932 9934 9936 9938 9940 9943 9945 9948 9951 9954 9958 9962 9965 9969 9973 9978 9983 9987 9992 9998 10003 10008 10013 10018 10024 10030 10035 10041 10047 10053 10060 10067 10075 10083 10091 10099 10107 10115 10123 10132 10141 10151 10162 10172 10181 10191 10202 10213 10227 10242 10255 10264 10274 10283 10292 10302 10311 10322 10333 10343 10353 10363 10372 10381 10390 10399 10410 10419 10428 10438 10447 10457 10464 10471 10478 10484 10491 10498 10505 10512 10520 10527
9928 9930 9931 9932 9933 9935 9937 9939 9941 9943 9947 9949 9952 9955 9958 9962 9966 9970 9974 9978 9983 9987 9992 9997 10003 10008 10013 10018 10023 10028 10034 10040 10045 10052 10058 10067 10075 10083 10091 10098 10105 10113 10122 10132 10142 10152 10162 10172 10180 10190 10201 10212 10225 10238 10252 10262 10270 10279 10288 10299 10310 10320 10330 10339 10349 10358 10367 10375 10386 10397 10407 10416 10425 10434 10442 10449 10457 10463 10470 10478 10485 10493 10501 10508 10516 10523
9930 9931 9932 9933 9935 9937 9938 9940 9943 9945 9948 9950 9953 9957 9960 9963 9967 9970 9974 9978 9983 9987 9992 9997 10002 10008 10013 10018 10023 10028 10033 10039 10045 10051 10058 10067 10075 10083 10090 10097 10104 10112 10121 10131 10141 10151 10162 10172 10182 10192 10202 10213 10224 10235 10248 10258 10267 10276 10286 10297 10307 10317 10326 10336 10346 10355 10364 10373 10383 10392 10402 10412 10421 10430 10437 10443 10450 10457 10465 10473 10482 10490 10498 10505 10512 10519
9932 9933 9934 9935 9937 9938 9940 9942 9944 9947 9949 9952 9955 9957 9961 9964 9967 9971 9975 9979 9983 9987 9992 9997 10002 10007 10012 10016 10022 10027 10032 10037 10043 10051 10059 10067 10075 10082 10088 10095 10103 10112 10121 10130 10140 10150 10161 10171 10181 10192 10203 10214 10225 10235 10245 10255 10263 10273 10285 10294 10303 10312 10322 10333 10343 10352 10362 10372 10381 10391 10400 10408 10418 10427 10432 10440 10448 10456 10463 10470 10477 10485 10493 10502 10508 10514
9933 9935 9936 9937 9938 9940 9942 9943 9945 9948 9950 9953 9955 9958 9962 9965 9968 9972 9976 9980 9983 9988 9992 9997 10001 10005 10010 10014 10019 10025 10030 10037 10043 10052 10060 10068 10074 10080 10086 10093 10102 10111 10120 10130 10139 10148 10158 10168 10180 10190 10201 10212 10223 10234 10245 10253 10263 10273 10283 10292 10302 10312 10323 10333 10342 10351 10360 10369 10378 10388 10398 10407 10415 10423 10430 10437 10445 10453 10460 10467 10473 10481 10488 10496 10503 10508
9935 9937 9937 9938 9940 9942 9943 9945 9947 9949 9952 9954 9957 9960 9963 9966 9970 9973 9977 9980 9985 9988 9992 9997 10000 10005 10010 10015 10019 10024 10030 10037 10045 10054 10062 10068 10073 10078 10084 10092 10101 10110 10119 10128 10138 10148 10157 10167 10178 10189 10200 10212 10223 10233 10244 10253 10263 10272 10282 10291 10302 10312 10322 10330 10338 10348 10358 10367 10377 10386 10395 10403 10412 10420 10427 10435 10442 10449 10456 10462 10468 10476 10483 10490 10497 10502
9937 9938 9939 9940 9942 9943 9945 9947 9948 9951 9953 9955 9958 9961 9964 9967 9970 9974 9977 9981 9985 9988 9992 9997 10001 10005 10010 10015 10020 10027 10034 10042 10050 10058 10064 10069 10073 10079 10086 10093 10102 10110 10118 10128 10137 10146 10156 10167 10178 10190 10202 10213 10223 10233 10242 10250 10259 10269 10279 10290 10300 10309 10317 10324 10334 10345 10354 10364 10374 10383 10392 10400 10408 10418 10426 10433 10440 10447 10452 10458 10465 10473 10480 10487 10492 10497
9939 9940 9941 9942 9943 9945 9947 9948 9950 9952 9955 9957 9960 9962 9965 9968 9972 9975 9978 9982 9986 9990 9993 9998 10002 10007 10013 10018 10025 10033 10040 10048 10055 10061 10065 10070 10076 10082 10089 10096 10103 10110 10119 10128 10138 10148 10158 10168 10178 10190 10202 10213 10222 10231 10239 10247 10257 10267 10278 10288 10297 10305 10313 10324 10335 10343 10351 10360 10370 10379 10387 10395 10405 10414 10422 10429 10436 10442 10449 10455 10462 10470 10477 10482 10487 10492
9941 9942 9942 9943 9945 9947 9948 9950 9952 9954 9956 9958 9961 9964 9967 9970 9973 9977 9980 9983 9987 9992 9996 10001 10006 10011 10017 10023 10030 10038 10045 10050 10055 10060 10065 10071 10077 10084 10091 10098 10104 10112 10120 10130 10140 10150 10160 10168 10178 10190 10201 10211 10220 10229 10238 10247 10257 10267 10278 10287 10295 10303 10313 10325 10335 10343 10350 10358 10367 10375 10383 10393 10403 10411 10417 10424 10431 10439 10447 10455 10461 10467 10472 10477 10482 10489
9942 9943 9944 9945 9947 9948 9950 9952 9953 9955 9958 9960 9963 9965 9968 9972 9975 9978 9982 9985 9989 9993 9998 10003 10008 10015 10021 10027 10033 10039 10044 10048 10053 10057 10063 10070 10077 10084 10092 10098 10106 10113 10122 10131 10140 10150 10160 10170 10181 10190 10198 10207 10217 10227 10238 10247 10257 10266 10275 10284 10293 10303 10313 10322 10330 10338 10347 10357 10366 10373 10382 10390 10398 10407 10414 10422 10429 10437 10444 10452 10460 10465 10468 10472 10478 10486
9944 9945 9946 9947 9948 9950 9951 9953 9955 9957 9960 9962 9965 9967 9970 9973 9977 9980 9983 9987 9992 9996 10001 10006 10011 10017 10022 10027 10033 10038 10042 10047 10051 10056 10062 10068 10075 10083 10091 10100 10108 10117 10124 10132 10142 10152 10161 10172 10182 10191 10197 10205 10214 10225 10235 10245 10255 10264 10272 10282 10293 10303 10312 10319 10327 10336 10346 10356 10364 10372 10380 10387 10393 10401 10410 10420 10427 10433 10440 10447 10454 10460 10463 10468 10475 10483
9946 9947 9948 9949 9950 9952 9953 9955 9957 9959 9961 9963 9966 9969 9972 9975 9978 9982 9985 9989 9993 9997 10002 10007 10012 10017 10022 10027 10032 10037 10042 10047 10051 10056 10062 10067 10074 10082 10090 10100 10108 10117 10124 10133 10142 10151 10160 10172 10183 10191 10197 10206 10215 10223 10232 10243 10253 10264 10274 10284 10293 10302 10310 10319 10328 10337 10347 10354 10362 10370 10378 10387 10394 10402 10410 10416 10422 10428 10435 10442 10448 10453 10458 10465 10472 10480
9948 9949 9950 9951 9952 9953 9955 9957 9958 9960 9963 9965 9968 9970 9973 9977 9980 9983 9987 9990 9995 9998 10003 10008 10013 10018 10022 10027 10032 10038 10043 10048 10052 10057 10062 10068 10075 10082 10090 10098 10107 10115 10123 10134 10143 10151 10161 10172 10182 10191 10201 10209 10217 10225 10234 10243 10253 10264 10275 10284 10292 10300 10308 10318 10327 10336 10344 10352 10359 10367 10375 10385 10394 10402 10408 10412 10418 10424 10432 10439 10444 10449 10455 10462 10469 10477